User: anonymous   Login
Location: Unspecified
(0.0000°N, 0.0000°E)
Time: 18:44:36
(UTC+00:00)
Language:

ATS 3 - Orbit

View from above orbital plane
View from above orbital plane
View from above satellite
View from above satellite

Ground track
Ground track

The orbit data is extracted from the following two-line orbital elements,

1  3029U 67111A   17145.52981149 -.00000099 +00000-0 +00000-0 0  9996
2  3029 004.7884 298.5996 0014340 120.3113 270.0291 01.00272128181451
Epoch (UTC): 25 May 2017 12:42:55
Eccentricity: 0.0014340
inclination: 4.7884°
perigee height: 35725 km
apogee height: 35846 km
right ascension of ascending node: 298.5996°
argument of perigee: 120.3113°
revolutions per day: 1.00272128
mean anomaly at epoch: 270.0291°
orbit number at epoch: 18145

The dashed part of the orbit path shows where the satellite is in the earth's shadow,  

DLR